FW5810 Weather Reports


time (UTC)temp
C
wind
direction
speed
KPH
gust
KPH
rain 1hr
cm
rain 24hr
cm
rain mn
cm
humidity
%
barometer
mb
20260509221120 20 257 9.7 19.3 0.00 1.42 1.42 49 1005.7
20260509220616 20 201 8.0 25.7 0.00 1.42 1.42 48 1005.7
20260509220113 20 268 19.3 33.8 0.00 1.42 1.42 48 1006.0
20260509215608 20 217 4.8 16.1 0.00 1.42 1.42 50 1005.6
20260509215106 20 201 14.5 16.1 0.00 1.42 1.42 49 1005.7
20260509214602 20 207 11.3 25.7 0.00 1.42 1.42 48 1005.6
20260509214059 20 217 12.9 19.3 0.00 1.42 1.42 48 1005.7
20260509213555 20 159 14.5 25.7 0.00 1.42 1.42 47 1005.8
20260509213052 20 263 11.3 30.6 0.00 1.42 1.42 48 1005.9
20260509212549 20 249 12.9 22.5 0.00 1.42 1.42 46 1005.8
20260509212046 20 208 6.4 19.3 0.00 1.42 1.42 50 1006.1
20260509211542 20 275 16.1 25.7 0.00 1.42 1.42 48 1006.1
20260509211039 20 201 9.7 19.3 0.00 1.42 1.42 49 1006.2
20260509210536 20 128 6.4 22.5 0.00 1.42 1.42 49 1006.0
20260509210032 20 158 12.9 24.1 0.00 1.42 1.42 48 1006.2
20260509205526 21 206 17.7 22.5 0.00 1.42 1.42 46 1006.5
20260509205022 20 135 6.4 16.1 0.00 1.42 1.42 46 1006.3
20260509204518 20 199 9.7 19.3 0.00 1.42 1.42 52 1006.3
20260509204015 20 203 12.9 22.5 0.00 1.42 1.42 50 1006.4
20260509203510 19 241 16.1 33.8 0.00 1.42 1.42 51 1006.4
20260509203009 20 175 11.3 16.1 0.00 1.42 1.42 50 1006.5
20260509202503 20 266 12.9 25.7 0.00 1.42 1.42 50 1006.4
20260509201959 21 202 14.5 30.6 0.00 1.42 1.42 50 1006.6
20260509201454 20 187 6.4 16.1 0.00 1.42 1.42 54 1006.6
20260509200951 20 234 14.5 19.3 0.00 1.42 1.42 50 1006.7
20260509200446 20 250 9.7 16.1 0.00 1.42 1.42 52 1006.7
20260509195943 20 102 11.3 16.1 0.00 1.42 1.42 53 1006.8
20260509195433 20 201 8.0 8.0 0.00 1.42 1.42 51 1006.9
20260509194932 20 181 8.0 19.3 0.00 1.42 1.42 53 1007.1
20260509194428 19 215 8.0 25.7 0.00 1.42 1.42 53 1007.2
20260509193926 19 227 11.3 24.1 0.00 1.42 1.42 53 1007.1
20260509193425 19 213 6.4 25.7 0.00 1.42 1.42 53 1007.4
20260509192921 19 219 25.7 30.6 0.00 1.42 1.42 52 1007.7
20260509192418 19 242 19.3 24.1 0.00 1.42 1.42 51 1007.7
20260509191913 20 235 12.9 29.0 0.00 1.42 1.42 50 1007.5
20260509191409 19 256 8.0 12.9 0.00 1.42 1.42 54 1007.6
20260509190905 18 228 11.3 25.7 0.00 1.42 1.42 56 1007.6
20260509190402 19 178 14.5 19.3 0.00 1.42 1.42 51 1007.5
20260509185900 20 250 11.3 24.1 0.00 1.42 1.42 54 1007.7
20260509185356 19 265 12.9 19.3 0.00 1.42 1.42 53 1007.8
20260509184853 18 240 6.4 12.9 0.00 1.42 1.42 54 1007.8
20260509184350 18 233 17.7 29.0 0.00 1.42 1.42 53 1007.8
20260509183847 19 229 12.9 16.1 0.00 1.42 1.42 53 1007.7
20260509183342 18 226 22.5 24.1 0.00 1.42 1.42 56 1007.8
20260509182838 18 233 8.0 25.7 0.00 1.42 1.42 55 1008.0
20260509182335 18 210 11.3 24.1 0.00 1.42 1.42 55 1008.0
20260509181833 18 188 11.3 25.7 0.00 1.42 1.42 58 1008.0
20260509181330 17 276 6.4 17.7 0.00 1.42 1.42 61 1007.9
20260509180827 17 234 14.5 24.1 0.00 1.42 1.42 58 1008.2
20260509180323 17 242 11.3 24.1 0.00 1.42 1.42 58 1008.1
20260509175820 17 232 8.0 22.5 0.00 1.42 1.42 59 1008.0
20260509175316 18 124 9.7 17.7 0.00 1.42 1.42 59 1008.0
20260509174812 18 243 8.0 16.1 0.00 1.42 1.42 61 1008.1
20260509174308 17 211 4.8 11.3 0.00 1.42 1.42 63 1008.1
20260509173804 17 273 14.5 22.5 0.00 1.42 1.42 60 1007.8
20260509173300 17 239 9.7 17.7 0.00 1.42 1.42 62 1007.8
20260509172756 17 200 14.5 17.7 0.00 1.42 1.42 61 1007.8
20260509172253 17 185 6.4 12.9 0.00 1.42 1.42 63 1007.9
20260509171748 17 228 6.4 17.7 0.00 1.42 1.42 62 1007.9
20260509171245 17 214 4.8 8.0 0.00 1.42 1.42 65 1008.3
20260509170741 17 253 6.4 12.9 0.00 1.42 1.42 65 1008.1
20260509170237 17 194 4.8 11.3 0.00 1.42 1.42 65 1008.1
20260509165736 17 234 9.7 12.9 0.00 1.42 1.42 64 1008.2
20260509165231 17 230 6.4 16.1 0.00 1.42 1.42 63 1008.2
20260509164727 17 139 11.3 19.3 0.00 1.42 1.42 64 1008.4
20260509164223 16 266 3.2 8.0 0.00 1.42 1.42 66 1008.4
20260509163721 16 243 3.2 12.9 0.00 1.42 1.42 67 1008.2
20260509163217 16 237 12.9 12.9 0.00 1.42 1.42 67 1008.4
20260509162715 16 142 8.0 19.3 0.00 1.42 1.42 70 1008.4
20260509162210 15 235 4.8 16.1 0.00 1.42 1.42 73 1008.3
20260509161706 16 214 17.7 19.3 0.00 1.42 1.42 71 1008.5
20260509161202 15 238 4.8 11.3 0.00 1.42 1.42 77 1008.4
20260509160657 15 210 17.7 22.5 0.00 1.42 1.42 73 1008.4
20260509160153 15 192 11.3 19.3 0.00 1.42 1.42 74 1008.5
20260509155649 15 261 6.4 12.9 0.00 1.42 1.42 77 1008.5
20260509155146 15 263 12.9 17.7 0.00 1.42 1.42 76 1008.4
20260509154641 14 271 3.2 12.9 0.00 1.42 1.42 80 1008.5
20260509154139 14 262 3.2 6.4 0.00 1.42 1.42 80 1008.4
20260509153636 14 222 4.8 17.7 0.00 1.42 1.42 80 1008.4
20260509153132 14 160 4.8 12.9 0.00 1.42 1.42 81 1008.3
20260509152628 14 262 6.4 8.0 0.00 1.42 1.42 81 1008.5
20260509152126 14 251 8.0 17.7 0.00 1.42 1.42 81 1008.4
20260509151622 14 216 4.8 8.0 0.00 1.42 1.42 83 1008.4
20260509151120 14 221 14.5 16.1 0.00 1.42 1.42 81 1008.4
20260509150618 13 250 4.8 6.4 0.00 1.42 1.42 86 1008.4
20260509150116 13 268 8.0 11.3 0.00 1.42 1.42 87 1008.3
20260509145611 13 236 4.8 11.3 0.00 1.42 1.42 88 1008.2
20260509145106 13 207 3.2 4.8 0.00 1.42 1.42 90 1008.4
20260509144604 12 259 8.0 11.3 0.00 1.42 1.42 90 1008.5
20260509144100 12 221 3.2 12.9 0.00 1.42 1.42 91 1008.6
20260509143558 12 152 1.6 4.8 0.00 1.42 1.42 93 1008.4
20260509143055 12 220 3.2 8.0 0.00 1.42 1.42 92 1008.3
20260509142550 12 185 4.8 11.3 0.00 1.42 1.42 92 1008.4
20260509142047 12 202 3.2 8.0 0.00 1.42 1.42 92 1008.3
20260509141543 12 222 3.2 4.8 0.00 1.42 1.42 92 1008.2
20260509141040 12 258 3.2 11.3 0.00 1.42 1.42 92 1008.3
20260509140537 12 220 6.4 6.4 0.00 1.42 1.42 92 1008.3
20260509140035 12 235 4.8 12.9 0.00 1.42 1.42 93 1008.3
20260509135531 12 217 4.8 16.1 0.00 1.42 1.42 93 1008.5
20260509135029 12 250 4.8 12.9 0.00 1.42 1.42 94 1008.3
20260509134526 12 239 6.4 8.0 0.00 1.42 1.42 94 1008.3
20260509134024 11 156 4.8 6.4 0.00 1.42 1.42 95 1008.3
20260509133520 11 163 3.2 8.0 0.00 1.42 1.42 94 1008.4
20260509133018 11 216 4.8 12.9 0.00 1.42 1.42 95 1008.3
20260509132516 11 226 4.8 6.4 0.00 1.42 1.42 95 1008.3
20260509132014 11 186 4.8 6.4 0.00 1.42 1.42 95 1008.4
20260509131510 11 209 9.7 11.3 0.00 1.42 1.42 95 1008.4
20260509131007 11 220 9.7 11.3 0.00 1.42 1.42 95 1008.5
20260509130502 11 212 1.6 6.4 0.00 1.42 1.42 95 1008.6
20260509125959 11 207 6.4 11.3 0.00 1.42 1.42 95 1008.5
20260509125456 11 210 3.2 4.8 0.00 1.42 1.42 95 1008.8
20260509124951 11 221 4.8 8.0 0.00 1.42 1.42 95 1008.8
20260509124449 11 208 3.2 4.8 0.00 1.42 1.42 96 1008.9
20260509123946 11 247 4.8 8.0 0.00 1.42 1.42 96 1008.6
20260509123444 11 228 1.6 1.6 0.00 1.42 1.42 96 1008.7
20260509122939 11 223 1.6 1.6 0.00 1.42 1.42 96 1008.8
20260509122437 11 250 4.8 6.4 0.13 1.42 1.42 96 1008.8
20260509121933 11 196 1.6 1.6 0.13 1.42 1.42 96 1008.8
20260509121430 10 227 1.6 4.8 0.00 1.40 1.40 96 1008.9
20260509120928 10 186 1.6 4.8 0.00 1.40 1.40 96 1008.7
20260509120426 10 136 3.2 6.4 0.00 1.40 1.40 96 1008.8
20260509115924 10 204 3.2 4.8 0.00 1.40 1.40 96 1008.8
20260509115421 10 240 3.2 1.6 0.00 1.40 1.40 96 1008.8
20260509114918 10 240 0.0 1.6 0.00 1.40 1.40 96 1008.8
20260509114417 10 220 1.6 4.8 0.00 1.40 1.40 96 1008.8
20260509113916 10 230 0.0 1.6 0.00 1.40 1.40 96 1008.8
20260509113413 10 206 3.2 8.0 0.00 1.40 1.40 96 1008.9
20260509112909 10 213 4.8 4.8 0.18 1.40 1.40 96 1008.9
20260509112407 10 217 4.8 11.3 0.18 1.40 1.40 96 1008.6
20260509111904 10 226 3.2 4.8 0.00 1.37 1.37 96 1008.8
20260509111400 10 208 9.7 11.3 0.13 1.37 1.37 96 1008.5
20260509110858 10 218 3.2 8.0 0.00 1.35 1.35 96 1008.5
20260509110354 10 240 3.2 4.8 0.00 1.35 1.35 96 1008.6
20260509105852 10 226 4.8 8.0 0.00 1.35 1.35 96 1008.6
20260509105350 10 213 4.8 6.4 0.00 1.35 1.35 96 1008.4
20260509104847 10 211 1.6 4.8 0.00 1.35 1.35 96 1008.4
20260509104343 10 233 1.6 1.6 0.00 1.35 1.35 96 1008.6
20260509103841 10 229 4.8 8.0 0.00 1.35 1.35 96 1008.5
20260509103338 10 219 1.6 4.8 0.00 1.35 1.35 96 1008.3
20260509102837 10 191 1.6 1.6 0.18 1.35 1.35 96 1008.2
20260509102334 10 227 3.2 8.0 0.18 1.35 1.35 96 1008.6
20260509101829 10 157 3.2 4.8 0.00 1.32 1.32 96 1008.6
20260509101326 10 194 1.6 4.8 0.00 1.32 1.32 96 1008.5
20260509100824 10 212 1.6 6.4 0.00 1.32 1.32 96 1008.6
20260509100321 10 235 3.2 4.8 0.00 1.32 1.32 96 1008.6
20260509095817 10 143 1.6 4.8 0.13 1.32 1.32 96 1008.6
20260509095315 10 165 3.2 4.8 0.13 1.32 1.32 96 1008.6
20260509094812 10 160 3.2 4.8 0.00 1.30 1.30 96 1008.7
20260509094308 10 176 1.6 4.8 0.00 1.30 1.30 96 1008.8
20260509093806 10 232 1.6 4.8 0.00 1.30 1.30 96 1008.8
20260509093303 10 188 1.6 4.8 0.00 1.30 1.30 96 1008.8
20260509092802 10 217 3.2 6.4 0.18 1.30 1.30 96 1008.9
20260509092259 10 186 3.2 1.6 0.18 1.30 1.30 96 1008.7
20260509091757 10 227 3.2 6.4 0.00 1.27 1.27 96 1009.0
20260509091253 10 146 1.6 6.4 0.00 1.27 1.27 96 1009.0
20260509090751 10 126 1.6 6.4 0.00 1.27 1.27 97 1009.0
20260509090248 10 231 3.2 6.4 0.13 1.27 1.27 97 1008.9
20260509085745 10 143 0.0 6.4 0.48 1.27 1.27 97 1009.0
20260509085243 10 233 3.2 4.8 0.66 1.24 1.24 97 1009.1
20260509084739 10 8 1.6 1.6 0.43 1.19 1.19 97 1009.3
20260509084236 10 296 0.0 4.8 0.13 1.14 1.14 97 1009.2
20260509083734 10 106 1.6 4.8 0.00 1.12 1.12 96 1009.2
20260509083230 10 239 1.6 1.6 0.18 1.12 1.12 96 1009.3
20260509082727 10 217 0.0 0.0 0.18 1.12 1.12 96 1009.2
20260509082224 10 217 1.6 1.6 0.30 1.09 1.09 96 1009.1
20260509081720 10 230 0.0 1.6 0.30 1.07 1.07 96 1009.3
20260509081218 10 230 0.0 1.6 0.30 1.04 1.04 96 1009.4
20260509080716 10 253 3.2 4.8 0.48 1.02 1.02 96 1009.5
20260509080213 10 154 1.6 4.8 0.61 0.99 0.99 96 1009.3
20260509075711 10 196 1.6 6.4 0.48 0.94 0.94 96 1009.3
20260509075209 10 175 3.2 6.4 0.13 0.86 0.86 96 1009.2
20260509074705 10 138 4.8 8.0 0.30 0.84 0.84 96 1009.3
20260509074203 10 216 6.4 8.0 0.48 0.84 0.84 96 1009.3
20260509073659 10 188 4.8 6.4 0.48 0.79 0.79 96 1009.3
20260509073155 10 202 4.8 11.3 0.30 0.76 0.76 96 1009.5
20260509072652 10 252 3.2 6.4 0.13 0.71 0.71 96 1009.5
20260509072149 10 217 3.2 8.0 0.13 0.71 0.71 96 1009.5
20260509071645 10 218 4.8 8.0 0.00 0.69 0.69 96 1009.4
20260509071143 10 201 3.2 12.9 0.18 0.69 0.69 96 1009.4
20260509070640 10 119 4.8 6.4 0.48 0.69 0.69 96 1009.6
20260509070136 10 225 4.8 6.4 0.48 0.66 0.66 96 1009.4
20260509065632 10 165 11.3 11.3 0.30 0.61 0.61 96 1009.4
20260509065128 10 155 6.4 8.0 0.30 0.58 0.58 96 1009.5
20260509064626 10 166 3.2 4.8 0.18 0.56 0.56 96 1009.7
20260509064124 10 147 3.2 6.4 0.30 0.56 0.56 96 1009.6
20260509063620 10 155 1.6 8.0 0.13 0.53 0.53 96 1009.6
20260509063117 10 155 3.2 4.8 0.18 0.51 0.51 96 1009.6
20260509062614 10 159 1.6 4.8 0.30 0.51 0.51 96 1009.8
20260509062111 10 215 1.6 1.6 0.13 0.48 0.48 96 1010.0
20260509061608 10 238 3.2 4.8 0.00 0.46 0.46 96 1010.0
20260509061105 10 144 1.6 4.8 0.00 0.46 0.46 96 1009.9
20260509060603 10 150 0.0 1.6 0.18 0.46 0.46 96 1010.1
20260509060058 10 151 0.0 4.8 0.18 0.46 0.46 96 1010.1
20260509055554 10 148 1.6 1.6 0.13 0.43 0.43 96 1010.3
20260509055050 10 137 1.6 1.6 0.30 0.43 0.43 96 1010.3
20260509054547 10 138 1.6 4.8 0.30 0.41 0.41 96 1010.3
20260509054045 10 145 1.6 4.8 0.13 0.38 0.38 96 1010.3
20260509053543 10 155 1.6 4.8 0.48 0.36 0.36 96 1010.5
20260509053040 10 128 3.2 6.4 0.30 0.33 0.33 96 1010.5
20260509052538 10 134 1.6 4.8 0.18 0.28 0.28 96 1010.6
20260509052035 10 124 3.2 4.8 0.30 0.25 0.25 96 1010.5
20260509051533 10 141 4.8 6.4 0.30 0.23 0.23 96 1010.5
20260509051030 10 128 1.6 1.6 0.13 0.20 0.20 96 1010.6
20260509050527 10 127 0.0 1.6 0.13 0.20 0.20 96 1010.5
20260509050023 10 134 3.2 4.8 0.18 0.18 0.18 96 1010.5
20260509045520 10 145 3.2 6.4 0.18 0.18 0.18 96 1010.8
20260509045017 10 130 3.2 4.8 0.30 0.15 0.15 96 1010.8
20260509044515 10 128 4.8 4.8 0.43 0.15 0.15 96 1010.8
20260509044013 10 126 1.6 1.6 0.43 0.10 0.10 96 1010.8
20260509043508 10 126 0.0 0.0 0.30 0.08 0.08 96 1010.9
20260509043004 10 126 1.6 1.6 0.00 0.03 0.03 96 1011.0
20260509042500 10 126 0.0 1.6 0.18 0.03 0.03 96 1011.0
20260509041956 10 125 1.6 4.8 0.00 0.00 0.00 96 1011.1
20260509041453 10 126 4.8 4.8 0.00 0.00 0.00 96 1011.0
20260509040951 10 120 1.6 1.6 0.00 0.00 0.00 96 1011.1
20260509040449 10 120 0.0 1.6 0.00 0.00 0.00 96 1011.2
20260509035946 10 122 0.0 1.6 0.00 0.74 0.74 96 1011.1
20260509035442 10 122 0.0 0.0 0.13 0.74 0.74 96 1011.4
20260509034939 10 122 1.6 1.6 0.13 0.74 0.74 95 1011.4
20260509034437 10 123 1.6 1.6 0.00 0.71 0.71 95 1011.4
20260509033934 10 123 0.0 0.0 0.00 0.71 0.71 95 1011.4
20260509033431 10 123 0.0 4.8 0.18 0.71 0.71 95 1011.5
20260509032927 10 131 1.6 1.6 0.18 0.71 0.71 95 1011.5
20260509032425 10 135 0.0 1.6 0.18 0.69 0.69 95 1011.6
20260509031923 10 128 1.6 4.8 0.18 0.69 0.69 95 1011.7
20260509031420 10 209 1.6 4.8 0.13 0.66 0.66 95 1011.9
20260509030917 10 250 1.6 4.8 0.30 0.66 0.66 95 1011.9
20260509030415 10 174 4.8 4.8 0.18 0.64 0.64 95 1011.6
20260509025912 10 146 4.8 6.4 0.13 0.61 0.61 95 1011.8
20260509025408 10 136 1.6 4.8 0.13 0.61 0.61 95 1011.7
20260509024903 10 208 1.6 1.6 0.00 0.58 0.58 95 1011.8
20260509024359 10 222 0.0 6.4 0.18 0.58 0.58 95 1012.0
20260509023856 10 128 3.2 6.4 0.18 0.58 0.58 95 1011.9
20260509023354 10 152 1.6 8.0 0.00 0.56 0.56 95 1012.0
20260509022850 10 153 6.4 8.0 0.00 0.56 0.56 95 1012.0
20260509022347 10 135 1.6 1.6 0.13 0.56 0.56 95 1012.0
20260509021844 10 140 1.6 6.4 0.13 0.56 0.56 95 1011.9
20260509021341 10 135 0.0 4.8 0.18 0.53 0.53 96 1011.9
20260509020839 10 160 6.4 6.4 0.18 0.53 0.53 96 1012.0
20260509020337 10 126 0.0 1.6 0.13 0.51 0.51 96 1012.0
20260509015834 10 148 1.6 4.8 0.18 0.48 0.48 96 1012.0
20260509015332 10 130 1.6 4.8 0.18 0.48 0.48 95 1012.1
20260509014829 10 123 1.6 4.8 0.13 0.46 0.46 95 1012.3
20260509014326 10 138 3.2 6.4 0.30 0.46 0.46 95 1012.1
20260509013823 10 133 1.6 1.6 0.36 0.43 0.43 95 1012.1
20260509013319 10 138 1.6 1.6 0.30 0.41 0.41 95 1012.1
20260509012815 10 138 1.6 1.6 0.30 0.38 0.38 95 1012.1
20260509012312 10 138 0.0 0.0 0.30 0.36 0.36 95 1012.2
20260509011809 10 138 0.0 0.0 0.13 0.33 0.33 95 1011.8
20260509011306 10 138 0.0 1.6 0.00 0.30 0.30 95 1011.9
20260509010804 10 138 1.6 4.8 0.18 0.30 0.30 95 1011.9
20260509010300 10 211 1.6 1.6 0.18 0.30 0.30 95 1012.0
20260509005758 10 212 0.0 0.0 0.13 0.28 0.28 94 1011.9
20260509005256 10 212 1.6 0.0 0.13 0.28 0.28 94 1011.7
20260509004755 10 212 1.6 1.6 0.18 0.25 0.25 94 1011.6
20260509004252 10 212 0.0 1.6 0.18 0.25 0.25 94 1011.9
20260509003751 10 230 4.8 4.8 0.13 0.23 0.23 94 1011.9
20260509003248 10 242 1.6 1.6 0.18 0.20 0.20 94 1011.9
20260509002745 10 242 1.6 1.6 0.18 0.20 0.20 94 1011.6
20260509002242 10 256 0.0 4.8 0.30 0.20 0.20 94 1012.0
20260509001740 10 323 1.6 1.6 0.30 0.18 0.18 94 1012.0
20260509001236 10 13 1.6 1.6 0.13 0.13 0.13 93 1011.6
20260509000734 10 13 1.6 1.6 0.13 0.13 0.13 93 1011.6
20260509000231 10 13 1.6 1.6 0.00 0.10 0.10 93 1011.6
20260508235728 10 13 1.6 1.6 0.00 0.10 0.10 93 1011.6
20260508235224 10 13 0.0 0.0 0.00 0.10 0.10 92 1011.1
20260508234721 10 13 0.0 0.0 0.00 0.10 0.10 92 1011.4
20260508234217 10 14 0.0 0.0 0.00 0.10 0.10 91 1011.0
20260508233712 10 14 0.0 0.0 0.00 0.10 0.10 90 1011.1
20260508233209 10 13 0.0 0.0 0.00 0.10 0.10 90 1011.0
20260508232706 10 13 0.0 0.0 0.00 0.10 0.10 89 1011.3
20260508232202 10 13 0.0 1.6 0.00 0.10 0.10 91 1011.1
20260508231701 10 13 0.0 0.0 0.00 0.10 0.10 92 1011.2
20260508231157 10 13 0.0 1.6 0.00 0.10 0.10 92 1011.1
20260508230654 10 13 0.0 0.0 0.00 0.10 0.10 92 1011.1
20260508230150 10 13 0.0 0.0 0.00 0.10 0.10 92 1011.4
20260508225649 10 13 0.0 0.0 0.00 0.10 0.10 92 1011.3
20260508225144 10 13 0.0 0.0 0.18 0.10 0.10 92 1011.2
20260508224643 10 12 1.6 1.6 0.18 0.10 0.10 92 1011.4
20260508224140 10 13 1.6 1.6 0.00 0.08 0.08 91 1011.3
20260508223637 10 10 3.2 4.8 0.00 0.08 0.08 91 1011.4
20260508223134 10 43 3.2 4.8 0.00 0.08 0.08 90 1011.1
20260508222632 10 70 1.6 1.6 0.00 0.08 0.08 90 1011.0
20260508222129 10 116 0.0 0.0 0.00 0.08 0.08 90 1011.0
20260508221625 10 115 1.6 1.6 0.00 0.08 0.08 91 1010.9